Theta_e
337 336 337 336 336 336 336 336 336 337 334 332 336 335 332 332 331 331 330 329 328 330 330 331 332 331 334 338 338 337 336 336 334 333 333 334 333 331 331 330 328 328 327 324 320 317 317 317 317 316 315 312 311 311 309 306 304 308 315 317 312 307 308 309 309 310 309 309 310 308 306 306 308 311 313 312 309 311 313 313 314 313 312 313 313
339 338 338 338 338 337 338 337 337 338 336 335 336 334 333 332 332 331 329 328 329 331 331 331 332 332 336 338 338 337 336 336 334 333 332 332 331 330 329 327 325 324 323 321 319 319 320 319 317 316 314 312 311 309 308 308 307 307 310 314 314 311 311 310 311 311 311 311 310 310 309 308 308 308 310 312 310 311 313 312 313 313 312 313 312
339 339 339 339 339 338 339 338 338 339 336 334 336 336 334 332 332 330 328 328 329 332 331 331 334 335 337 338 337 337 336 335 334 333 332 331 330 329 326 323 323 323 322 322 321 321 321 320 317 316 315 314 313 312 311 311 310 308 308 311 314 315 314 313 313 313 312 312 311 311 310 310 310 309 309 310 311 312 313 312 312 312 313 313 312
339 339 339 339 339 338 338 338 337 337 334 335 336 335 334 333 332 331 330 330 330 332 333 334 336 336 337 337 336 336 335 334 333 332 332 330 329 328 326 324 321 320 320 320 321 322 322 320 318 317 318 317 316 316 316 315 314 313 311 311 313 314 315 314 314 314 313 313 313 312 311 312 312 311 310 310 310 311 312 313 312 312 312 313 312
339 339 338 337 337 336 336 336 336 334 333 336 336 334 334 334 334 334 333 332 332 334 335 336 337 337 336 336 336 334 333 333 332 332 331 330 329 328 327 326 323 319 317 317 319 320 321 320 319 319 319 318 318 318 317 317 317 316 314 313 313 314 314 314 314 314 314 313 313 313 312 312 312 312 312 311 311 311 311 312 312 311 312 312 312
339 338 337 336 335 336 335 334 334 333 333 337 336 334 334 334 335 335 335 335 335 337 338 337 337 337 335 335 335 333 332 332 331 332 331 329 328 327 327 326 325 323 319 317 317 319 320 320 320 319 318 318 318 317 317 317 316 316 315 314 313 313 313 314 313 313 313 313 313 313 313 312 311 311 312 312 312 312 312 311 311 311 311 312 312
338 338 338 337 336 336 336 334 335 334 334 336 336 335 335 335 336 337 338 338 338 337 338 337 337 336 335 335 334 333 332 331 331 331 330 328 327 326 325 324 323 323 322 320 319 320 320 320 318 317 317 317 317 317 316 316 315 314 314 313 312 312 312 312 313 313 313 313 312 313 313 312 310 310 310 311 311 312 312 311 310 311 311 311 311
338 339 341 340 339 339 339 340 340 339 339 339 339 339 339 339 339 339 340 339 338 337 337 337 337 335 334 335 334 332 332 331 331 330 328 326 325 324 323 322 322 322 322 321 321 319 317 318 318 317 317 317 317 316 316 315 314 313 312 312 312 311 311 311 311 312 313 313 311 311 312 311 310 309 309 310 310 310 311 311 310 311 311 311 311
340 341 343 342 342 341 342 344 344 343 343 343 342 342 341 342 342 341 340 339 337 337 337 337 337 336 334 335 333 332 332 331 331 329 328 325 323 323 322 321 319 319 320 321 321 318 315 315 316 317 316 316 316 314 314 315 314 313 312 311 311 311 311 311 311 311 313 313 311 310 311 311 310 309 308 308 309 309 309 309 310 311 311 311 311
340 341 343 342 343 343 344 344 344 344 344 343 343 343 342 342 343 342 340 338 336 336 336 336 336 335 335 334 333 332 331 331 331 330 327 324 322 322 321 319 315 314 317 320 321 318 315 311 309 310 309 311 314 313 312 313 313 313 312 310 310 311 311 310 311 312 312 311 310 310 310 310 310 308 307 307 308 308 309 309 309 311 311 311 311
340 341 342 342 343 343 345 344 343 343 343 343 343 343 343 344 344 343 341 339 337 336 336 336 336 335 335 334 333 332 332 331 331 329 326 323 321 321 320 318 315 314 316 318 319 319 318 312 308 309 306 304 308 310 309 308 308 310 311 311 311 312 311 311 311 311 310 310 310 310 309 309 309 308 307 307 307 308 308 308 309 311 311 311 310
339 340 342 342 342 342 344 344 342 343 343 343 343 343 344 345 344 342 341 340 337 335 336 336 336 334 333 333 332 331 331 331 331 329 326 323 321 320 320 317 315 314 313 315 317 318 318 315 312 313 310 303 300 301 303 302 303 305 308 309 309 311 312 310 311 311 309 309 309 309 308 308 308 307 306 307 307 308 308 309 310 310 310 310 310
339 340 341 343 342 341 342 343 342 342 343 342 342 344 344 342 341 340 340 339 337 335 336 336 335 333 332 332 331 331 330 330 330 328 326 324 321 321 320 317 315 313 312 313 314 315 316 315 314 314 312 307 302 300 302 303 303 302 302 303 304 307 310 309 309 310 308 308 308 307 307 307 307 306 307 307 308 308 309 310 310 309 309 309 309
339 339 341 343 342 341 341 343 343 342 343 343 342 343 342 340 339 338 338 338 338 336 335 335 334 332 332 332 331 330 330 330 330 329 326 324 322 322 320 318 316 314 313 312 311 311 312 313 313 312 311 309 306 305 306 307 307 305 301 301 301 304 308 308 308 308 307 306 306 306 306 306 306 306 307 308 308 309 310 310 309 309 309 309 309
339 339 341 342 342 341 341 342 343 342 342 342 343 343 342 340 338 338 337 337 338 337 335 334 334 334 333 332 332 331 330 330 330 329 327 325 323 322 321 318 316 314 313 311 310 310 310 311 311 310 310 310 309 309 309 308 309 307 304 305 305 304 304 304 305 305 304 304 305 305 306 306 306 306 308 308 309 310 309 309 308 308 309 308 308
339 339 340 342 342 342 341 343 343 342 341 342 344 344 342 340 339 338 337 336 337 337 336 335 335 334 334 333 332 331 331 331 331 329 327 325 323 322 321 319 316 314 313 311 311 310 310 310 310 310 310 310 310 310 310 309 308 307 307 309 310 306 302 301 301 301 301 302 304 304 306 306 306 307 308 308 309 310 309 308 308 308 308 308 308
339 339 339 341 342 342 341 343 343 342 342 342 344 344 342 341 339 338 337 337 336 337 337 337 335 334 334 333 332 331 331 331 331 330 328 326 324 322 321 320 317 315 313 312 312 311 310 310 310 311 310 310 310 309 310 310 309 309 311 311 310 305 301 300 300 298 298 300 302 305 306 305 306 307 308 308 309 309 308 307 307 307 308 308 308
339 339 339 340 341 342 342 342 342 341 341 342 343 344 343 341 339 338 337 336 336 337 338 337 336 335 333 333 333 333 332 330 329 329 327 326 324 323 321 320 318 315 314 313 312 311 311 310 310 311 311 310 310 310 310 310 309 312 313 312 308 303 300 300 299 297 296 296 300 304 305 305 306 307 307 308 308 307 306 306 306 306 307 308 308
339 340 339 340 341 341 342 342 341 341 341 341 343 344 342 341 340 338 337 336 336 336 337 337 337 335 334 334 333 334 332 330 330 329 328 326 324 323 322 320 319 317 315 314 313 312 311 311 311 311 310 310 310 311 310 310 310 310 311 309 305 302 300 299 297 296 295 295 298 303 305 305 305 307 307 307 307 306 305 305 306 306 307 307 307
340 340 340 340 341 341 342 342 341 342 342 341 343 343 342 340 340 338 337 337 335 335 335 337 337 336 335 334 333 333 332 331 331 331 330 328 325 323 322 321 320 318 317 315 314 312 312 311 311 311 311 311 311 310 310 311 311 311 309 308 304 301 299 297 296 295 295 295 296 300 302 303 305 306 307 307 306 305 305 305 306 306 306 306 305
341 340 340 341 341 341 342 342 341 342 342 341 341 342 341 341 339 338 337 337 335 334 336 338 337 336 335 334 333 332 331 330 330 330 331 330 328 325 323 322 320 320 318 317 315 313 312 312 311 310 311 311 311 310 310 310 312 311 310 308 304 300 297 296 295 295 296 296 295 297 297 299 303 306 306 306 305 304 304 304 305 306 305 304 303
341 340 340 341 341 341 341 341 342 342 341 341 341 342 341 340 340 339 337 336 336 335 336 336 335 334 334 333 332 331 330 329 329 329 329 330 329 326 325 323 322 321 319 317 316 314 313 312 311 310 311 311 311 310 310 311 311 311 309 306 302 298 296 295 295 296 296 296 295 296 295 296 301 305 305 304 302 302 302 303 304 304 303 301 301
341 340 340 341 341 342 341 341 341 342 341 341 341 341 341 340 339 338 337 337 337 337 336 335 334 333 333 333 331 330 330 330 330 329 328 329 329 328 327 325 323 324 321 318 317 315 314 312 311 311 311 311 311 310 311 311 310 309 307 305 301 298 297 296 296 296 296 296 295 295 295 295 299 301 301 300 298 298 299 301 302 301 298 297 298
342 341 340 341 341 341 341 341 341 341 341 341 341 340 340 339 339 338 338 337 337 337 336 335 334 333 333 333 332 331 330 330 329 329 329 329 329 329 329 326 325 324 321 319 318 316 314 313 312 311 311 311 311 310 311 310 310 308 307 304 300 298 298 298 297 295 296 296 295 295 295 295 296 296 297 295 295 295 296 297 297 296 295 295 295
342 341 341 341 341 341 342 341 341 341 341 341 340 340 339 339 338 337 337 337 336 336 335 334 334 333 333 333 333 332 331 330 330 330 330 330 330 330 328 326 325 324 321 319 318 316 314 313 312 311 311 310 310 310 310 310 309 308 306 302 299 299 301 301 298 295 296 296 295 295 295 295 295 295 295 294 295 295 294 294 294 294 294 294 295
342 342 341 341 341 341 341 342 342 341 341 341 340 339 338 338 337 336 335 335 335 335 334 333 333 333 333 333 332 331 331 331 330 330 330 330 330 329 328 326 325 324 321 319 318 316 315 313 312 311 310 310 310 310 310 309 309 308 305 300 299 302 304 304 300 296 295 295 295 295 294 295 295 294 295 295 294 294 294 294 294 294 294 295 295
342 342 341 341 341 341 341 342 342 341 340 341 340 338 337 337 337 336 335 334 334 334 334 334 334 334 333 332 332 332 331 331 331 330 330 330 330 329 328 327 325 324 322 320 318 316 314 312 311 311 310 310 310 309 310 309 308 307 303 300 304 306 305 305 301 296 295 295 295 295 295 295 295 295 295 294 294 294 294 294 294 294 294 295 296
342 342 342 341 341 341 341 342 342 342 341 341 340 338 337 337 336 336 335 335 334 333 333 333 333 333 333 332 332 332 332 331 331 330 330 329 329 328 327 326 325 325 323 320 318 315 313 312 311 310 309 309 309 309 309 308 306 305 302 304 308 307 306 306 301 295 295 295 295 296 295 295 295 295 295 295 295 295 294 294 294 294 295 295 296
342 342 342 341 341 340 341 342 342 342 341 340 340 338 338 337 336 335 335 334 333 332 332 332 332 332 332 332 332 332 331 330 330 329 329 329 328 327 326 324 324 324 322 320 319 317 313 312 311 309 309 309 309 309 308 306 306 304 303 305 307 307 307 306 300 297 297 297 296 296 296 296 296 295 295 295 295 295 295 295 295 295 295 296 296
342 342 342 341 341 340 340 342 342 341 340 339 339 338 338 337 336 335 334 333 332 331 331 331 331 331 331 331 332 331 330 329 329 328 328 327 326 325 324 322 323 323 321 320 319 317 315 312 310 310 309 309 309 309 307 306 306 305 302 304 307 307 307 304 301 300 301 299 298 297 296 296 296 295 295 296 296 296 296 296 296 296 296 297 297
342 342 342 341 341 340 340 341 342 341 340 339 339 338 337 336 336 334 333 332 332 331 330 330 329 330 330 329 330 329 328 327 327 327 326 326 325 324 322 321 321 320 319 319 317 317 316 313 312 311 309 308 308 308 307 306 306 304 302 304 307 307 305 303 303 303 303 301 298 297 297 297 296 296 296 297 297 297 297 297 297 297 297 297 298
342 342 341 341 341 340 340 341 341 340 339 339 338 338 337 336 335 334 333 332 331 330 330 329 329 328 328 328 328 327 326 326 326 325 324 323 322 321 319 318 318 318 319 319 317 318 318 315 313 311 308 308 307 307 307 306 305 304 303 304 307 306 304 305 305 304 303 302 298 297 297 297 297 298 298 298 298 298 298 298 298 298 298 298 298
342 342 341 341 341 340 339 340 340 340 339 339 338 337 336 335 334 333 332 331 331 330 329 329 328 327 327 327 327 326 325 325 323 322 321 320 319 318 316 316 316 317 318 318 316 318 318 315 313 310 308 308 307 306 306 306 306 305 304 304 306 306 305 305 306 304 303 302 299 297 298 298 298 299 299 299 299 299 299 299 299 299 299 299 299
342 342 342 341 340 340 339 339 339 339 340 339 338 336 335 334 333 333 332 332 330 329 329 328 327 326 326 326 325 325 323 322 321 319 318 317 316 315 314 314 315 315 316 314 312 315 317 314 312 310 308 308 307 306 305 305 306 305 304 304 305 306 305 305 305 305 304 303 300 298 299 299 299 299 299 299 299 299 299 299 299 299 299 299 300
342 342 342 341 341 340 339 338 338 339 339 338 337 336 335 334 333 332 332 331 330 329 328 327 326 324 324 324 323 323 321 320 319 317 315 314 313 312 311 311 312 312 313 312 310 314 317 314 311 309 308 307 306 306 305 305 305 305 304 304 305 305 305 305 305 305 305 304 301 299 299 299 299 299 299 299 300 300 301 301 300 300 301 301 301
343 343 342 342 341 340 339 338 338 338 338 338 337 335 334 334 333 332 331 330 329 328 327 326 325 323 323 322 322 321 320 319 318 315 313 312 311 310 310 310 310 311 312 312 312 315 315 313 311 309 308 307 305 305 305 305 305 305 304 304 305 305 306 306 306 305 305 304 302 302 302 301 301 301 301 301 301 302 302 302 302 302 302 302 302
343 343 342 342 340 340 339 338 338 338 338 338 336 335 334 334 333 332 330 328 328 328 326 325 323 322 322 321 321 320 319 318 316 314 312 312 310 309 310 309 310 313 314 313 312 313 312 312 310 308 308 307 306 305 305 304 305 306 306 305 305 305 306 306 306 306 306 305 305 305 304 303 303 303 302 302 302 302 303 302 302 302 303 303 302
344 343 343 342 341 340 340 338 337 337 338 338 336 335 334 333 332 331 329 328 328 327 325 324 322 320 321 320 320 319 318 317 315 313 312 311 310 310 309 308 311 314 313 311 309 309 310 310 309 308 307 307 306 306 305 304 305 305 305 306 306 306 306 306 306 307 307 306 306 305 304 304 303 303 303 303 303 303 303 303 302 303 303 302 301
344 344 343 342 341 341 340 339 337 336 337 338 337 335 334 333 332 329 328 327 328 327 325 323 321 319 319 319 319 318 317 316 315 313 312 311 310 310 309 309 312 312 308 307 307 308 309 309 308 308 307 306 306 307 306 305 304 304 304 305 306 306 307 307 307 306 306 307 306 304 304 303 303 304 304 304 304 304 303 303 302 302 302 301 300
344 344 343 342 342 341 340 339 338 336 337 337 336 335 334 332 329 328 327 327 327 326 323 322 320 319 318 318 318 317 315 315 314 313 312 312 310 310 309 310 310 307 305 307 308 307 307 308 308 308 307 307 307 307 307 306 305 305 306 307 306 306 306 307 307 307 307 307 306 305 305 305 305 305 305 305 305 304 304 303 303 302 302 301 300
344 343 343 342 342 341 341 339 338 336 336 336 336 334 333 330 328 327 326 326 326 324 322 320 319 318 317 317 317 316 314 313 313 312 312 311 310 310 310 310 308 305 306 307 307 306 307 308 308 307 307 308 307 307 307 306 306 308 308 307 306 306 307 307 306 307 307 307 307 307 306 305 305 305 305 305 305 304 304 304 304 303 302 301 300
343 343 343 342 342 341 341 339 338 337 336 336 335 333 330 328 327 326 326 326 326 324 321 319 318 317 316 316 316 314 313 312 312 311 310 309 309 310 310 309 307 305 306 307 307 307 307 307 307 307 308 308 307 307 308 307 308 307 306 306 307 307 307 307 307 307 307 307 307 306 306 306 305 305 305 305 304 304 305 305 304 303 302 301 301
342 343 343 342 342 341 340 339 339 337 336 335 333 331 329 327 327 326 325 326 326 324 321 319 318 317 316 316 315 313 311 311 311 309 309 307 307 308 308 307 306 306 307 308 307 306 307 307 307 307 307 307 307 308 307 307 308 306 306 306 307 307 307 307 307 307 307 306 305 305 306 307 306 305 305 304 304 304 305 304 303 303 302 302 301
342 343 342 342 341 341 340 339 338 337 336 334 331 329 328 328 327 326 326 326 325 323 320 318 317 316 315 315 314 312 310 310 309 308 306 305 305 306 306 306 305 306 308 309 308 307 307 307 307 307 307 307 308 309 307 306 307 307 307 307 306 307 308 308 307 307 306 305 305 306 307 307 307 306 305 304 304 304 304 303 303 302 302 302 302
342 342 342 341 341 340 340 339 338 336 334 331 330 330 329 328 327 326 325 325 324 322 320 318 317 316 315 315 314 312 310 310 308 306 304 301 301 303 305 305 304 306 307 308 308 308 308 307 307 308 308 307 308 308 307 307 307 307 306 306 307 308 308 307 306 306 305 305 306 307 307 307 307 306 304 304 303 303 303 303 303 302 302 302 302
342 342 342 341 340 340 339 339 337 335 332 330 330 330 329 328 327 325 325 324 323 322 320 317 316 315 314 314 314 312 310 309 307 306 304 302 300 301 303 303 303 305 306 306 306 306 306 308 309 309 308 308 308 308 308 307 306 305 305 306 308 308 307 306 305 305 306 307 307 307 305 306 306 305 304 303 303 303 303 303 303 303 302 302 302
342 341 341 341 340 339 339 338 336 334 332 331 331 330 329 329 326 325 326 325 323 322 319 317 316 315 314 314 314 312 309 308 306 306 306 305 303 302 303 302 302 303 304 303 304 304 304 306 309 310 308 308 307 308 308 307 306 305 305 306 306 305 304 305 306 306 307 307 306 305 305 306 306 305 303 303 303 303 303 302 302 303 302 302 302
342 341 340 340 339 339 339 337 336 334 332 332 332 330 329 329 326 325 326 327 324 321 319 316 315 314 314 314 313 311 310 308 306 306 307 307 306 305 304 303 302 303 303 301 302 303 303 304 306 308 309 308 306 306 308 307 306 306 306 305 304 305 306 307 307 307 306 305 304 305 306 306 305 304 303 302 303 303 302 302 303 302 302 302 302
341 340 339 339 339 339 337 336 335 334 332 331 331 330 329 329 326 324 325 325 322 320 318 316 314 314 314 314 313 312 311 310 307 305 306 307 307 305 304 303 303 305 305 303 300 299 300 302 303 305 307 307 306 305 305 305 303 302 302 303 303 305 306 306 306 306 305 305 306 306 306 305 304 303 302 302 302 302 302 302 303 302 302 302 302
340 339 338 338 338 338 337 336 336 334 331 331 331 330 330 328 326 323 323 323 321 318 317 315 314 314 314 313 312 312 313 311 307 305 306 307 307 305 303 304 305 306 307 307 303 299 298 299 300 302 304 306 305 305 304 301 299 298 299 301 303 303 304 305 305 306 305 305 307 307 305 304 304 303 302 302 302 302 302 302 302 302 303 302 302
340 339 338 338 338 337 336 336 335 333 331 330 330 330 329 328 326 323 322 321 319 318 317 315 314 314 313 312 311 311 313 312 308 305 305 306 307 305 304 305 306 307 307 309 308 304 299 298 299 300 300 302 303 303 301 299 298 298 298 300 302 302 303 304 305 305 305 305 307 306 304 304 304 303 303 303 303 303 303 302 302 303 302 302 302
Wind_Speed
15 16 15 14 14 13 13 14 13 13 14 14 13 13 13 12 12 11 11 12 11 10 9 9 9 7 5 4 3 1 4 11 13 13 12 11 10 8 8 8 7 6 5 4 4 6 8 9 9 10 10 9 9 9 9 8 8 8 8 7 7 10 12 12 13 13 13 13 14 15 16 15 14 13 13 14 14 13 13 13 13 14 14 14 14
15 15 14 14 13 13 12 12 13 12 13 13 12 13 13 12 12 12 12 12 11 10 10 9 9 7 5 5 4 3 3 6 12 14 12 12 11 8 7 6 5 5 5 6 7 9 10 10 10 9 9 9 9 9 9 9 9 8 8 7 6 8 10 11 12 12 12 13 14 14 15 15 15 15 13 13 14 13 12 13 12 13 14 13 14
14 14 13 13 13 13 12 12 13 11 12 13 11 11 11 11 11 11 12 11 10 9 9 9 6 5 4 4 5 5 5 5 9 12 10 10 11 10 8 6 5 5 7 8 9 10 10 10 10 10 10 9 9 9 9 9 9 8 8 8 6 6 7 9 9 9 11 12 13 13 14 14 14 15 15 14 13 13 12 13 13 13 13 13 13
14 13 13 13 13 13 12 12 12 11 12 11 11 11 10 10 10 10 10 10 9 8 8 7 2 5 5 5 6 7 6 5 7 10 9 9 11 12 10 7 5 5 7 8 9 10 10 10 9 9 9 9 9 8 8 7 6 6 7 7 7 6 5 6 8 7 9 10 10 12 12 12 12 13 14 14 14 13 12 12 13 13 13 12 13
14 13 12 12 12 12 12 12 11 11 11 10 10 10 9 10 9 9 9 9 9 7 7 7 3 4 6 6 8 9 7 6 6 7 7 7 8 11 12 9 7 5 6 7 9 10 9 9 9 9 8 8 7 7 6 5 4 4 4 5 6 5 5 5 7 7 7 8 9 10 10 11 12 12 12 13 13 13 13 13 13 14 13 13 13
14 14 12 12 12 12 12 11 11 11 11 10 10 10 10 9 10 10 9 10 9 7 8 8 5 5 7 8 9 9 8 8 7 5 6 5 5 8 9 8 8 8 6 7 8 9 9 9 8 8 7 7 6 5 5 4 4 3 3 4 4 5 5 5 6 7 7 8 9 9 10 11 12 13 13 13 13 13 13 14 14 14 14 13 13
14 14 13 12 12 12 12 11 11 11 11 11 10 10 10 10 10 10 10 11 8 6 8 9 7 7 9 10 10 10 8 8 7 5 5 4 4 5 3 2 4 6 7 7 8 9 9 9 8 8 7 6 5 4 4 4 3 3 2 2 3 4 5 5 6 6 7 8 9 9 10 11 12 13 13 14 14 14 14 14 15 15 14 14 13
14 14 13 13 12 12 12 11 11 12 10 11 11 10 10 10 10 10 11 10 5 7 9 9 8 7 8 9 8 9 7 7 6 4 4 3 5 5 3 2 3 6 8 7 8 8 9 9 8 7 6 5 4 4 4 3 3 2 2 2 3 4 5 5 6 7 7 7 9 10 11 11 13 14 14 14 14 14 14 15 15 15 15 14 13
14 14 14 13 12 12 12 11 11 11 10 11 11 10 10 10 10 10 13 9 6 11 10 8 9 8 7 7 7 7 7 7 4 3 4 3 4 4 4 4 4 6 7 7 8 8 9 9 9 8 8 8 6 4 3 3 2 2 1 2 3 3 5 5 6 7 7 8 10 11 11 11 12 14 15 15 15 15 15 15 15 15 15 14 13
15 15 14 14 13 11 11 12 11 11 10 11 11 10 10 10 10 10 13 8 7 13 11 8 9 8 8 8 7 6 6 6 4 3 3 3 4 4 5 5 5 6 7 7 8 9 9 9 9 9 9 10 8 5 4 5 3 2 1 1 3 4 5 6 6 7 8 9 10 11 12 12 13 15 16 16 16 16 16 16 15 15 15 14 14
16 15 15 14 13 12 11 12 12 11 11 11 10 11 10 9 10 10 11 7 7 11 12 11 9 8 8 7 7 6 6 5 4 3 3 4 4 4 5 5 5 6 7 7 8 9 9 8 9 9 8 8 9 7 6 6 5 3 1 1 2 4 5 6 6 7 8 9 11 12 13 14 14 16 17 17 16 16 16 15 15 15 15 15 15
17 16 15 14 14 13 12 12 12 11 11 11 11 11 10 10 10 10 10 8 8 9 11 11 10 9 7 7 6 6 6 5 4 4 3 5 5 4 5 5 6 7 7 7 8 8 9 9 9 9 8 6 6 6 5 4 4 2 1 1 2 4 5 6 6 7 9 10 11 13 14 15 16 17 17 16 16 16 15 15 15 15 15 15 15
18 16 16 15 14 13 13 12 12 12 12 12 11 10 11 12 11 11 11 10 9 10 12 12 11 9 7 7 7 6 6 4 4 5 5 5 6 5 5 6 7 7 7 8 7 8 9 9 8 8 9 7 5 4 2 2 3 2 1 2 2 3 5 5 6 7 9 11 13 14 16 16 16 16 16 16 15 15 15 14 14 15 15 16 16
18 17 16 15 14 14 14 13 12 13 12 11 11 10 11 13 12 11 11 10 9 10 15 15 12 11 10 9 7 6 6 4 5 7 7 7 7 6 6 7 7 8 8 7 8 8 9 9 8 7 8 7 7 5 3 4 5 2 3 5 3 3 4 5 6 8 10 12 14 15 15 15 15 15 15 15 15 15 14 14 15 15 15 16 16
18 17 16 16 15 14 14 14 13 13 12 11 11 11 11 12 12 12 11 10 8 9 15 15 11 11 12 8 5 5 5 7 10 11 10 9 8 8 7 7 8 9 8 7 8 8 9 9 8 7 7 6 6 6 5 7 8 4 6 7 5 4 5 6 7 9 12 13 14 15 15 14 14 14 14 14 14 14 14 14 15 15 15 16 16
19 18 17 16 16 15 15 14 14 13 12 11 11 11 12 12 12 12 11 11 10 10 14 14 10 10 9 5 5 5 4 8 12 11 11 11 10 10 9 8 9 9 9 8 9 9 8 9 8 8 7 6 5 4 4 7 7 7 8 7 6 6 8 9 10 12 13 13 14 14 14 14 14 14 14 14 13 13 14 14 15 15 15 15 15
19 19 17 16 16 16 15 15 14 13 13 12 11 11 12 13 13 13 12 12 10 11 12 13 12 10 8 4 4 3 3 6 10 8 10 13 12 12 11 10 10 10 10 9 9 9 8 9 9 8 8 7 6 5 5 5 4 5 5 5 6 8 10 11 11 13 14 13 13 13 13 13 13 13 13 13 13 13 14 14 15 15 15 15 15
20 20 18 17 17 17 17 16 15 14 13 12 11 11 13 14 14 14 14 13 11 10 11 12 12 11 11 6 2 2 0 6 7 5 8 11 11 12 12 11 11 11 11 10 10 10 9 10 10 9 8 8 7 6 6 6 5 5 5 6 9 11 12 12 12 13 14 13 12 12 12 13 12 13 13 13 13 13 14 15 15 15 15 15 16
20 20 19 18 17 17 18 16 15 14 14 13 12 12 13 14 14 14 14 13 12 10 10 11 11 11 12 10 7 6 3 4 4 2 5 8 10 12 12 12 12 11 12 11 11 11 10 10 10 10 10 9 8 8 7 7 8 9 9 10 11 12 13 13 13 14 14 13 12 11 12 12 12 12 12 13 13 14 14 15 15 15 15 15 16
21 20 20 19 18 17 18 17 16 15 14 14 13 12 14 14 14 15 14 13 14 12 10 10 11 10 11 11 10 9 8 8 8 6 3 4 7 10 11 12 12 12 12 11 12 12 12 11 10 10 11 10 9 8 7 7 8 9 11 10 10 11 12 13 14 14 14 12 11 11 11 12 11 12 12 12 13 13 14 14 14 14 15 15 16
21 21 20 20 19 18 18 18 17 15 14 14 13 13 15 15 15 16 16 14 14 14 11 10 11 10 10 11 10 10 10 10 10 9 7 6 5 6 10 11 11 13 14 12 12 12 13 13 11 11 11 10 10 9 8 7 7 8 11 10 10 12 11 12 13 13 13 12 11 11 10 11 11 12 12 12 13 13 13 14 14 14 15 16 17
22 23 22 21 21 19 18 18 18 16 15 14 14 15 16 16 16 17 16 14 13 13 12 11 11 11 10 11 10 10 10 10 11 11 9 8 7 6 10 12 12 14 17 15 13 12 12 13 12 12 11 10 10 9 9 8 8 11 12 11 11 11 11 12 12 12 12 11 11 10 11 10 11 12 12 12 13 13 13 14 14 15 16 17 18
23 23 23 22 21 21 19 18 18 17 16 15 14 15 16 17 17 17 17 15 14 13 13 13 13 13 12 12 12 12 11 10 11 11 10 9 7 6 9 13 14 13 16 16 14 12 12 13 13 13 11 11 10 9 9 9 12 14 12 12 11 11 11 11 11 11 10 11 11 10 11 11 11 12 12 13 14 14 14 14 14 16 17 17 18
23 23 24 23 23 22 20 18 19 19 17 16 15 16 18 18 18 18 18 17 16 15 14 15 15 15 15 14 13 12 12 12 12 11 11 10 9 7 7 10 12 13 19 18 12 12 14 13 13 13 12 11 10 9 8 8 13 14 12 12 11 10 10 11 11 11 10 10 10 10 11 11 12 12 13 14 15 15 15 15 15 16 17 17 17
24 24 24 24 24 23 22 20 19 19 18 17 16 17 19 18 18 20 19 17 17 17 16 17 16 17 16 15 14 14 13 13 12 12 11 11 11 8 8 10 10 9 16 14 7 11 14 14 14 13 13 12 10 10 8 8 12 12 9 10 12 10 9 11 12 11 10 10 10 10 11 11 12 13 14 14 14 15 15 15 15 16 16 16 17
26 26 25 24 24 24 23 20 19 19 19 18 17 17 19 19 18 19 19 17 17 17 18 17 16 16 15 14 14 14 14 13 13 13 12 12 12 9 9 10 8 5 5 6 7 13 13 14 14 12 12 12 10 9 8 8 12 11 8 9 11 10 9 11 13 11 10 9 9 10 10 11 12 13 13 14 14 14 14 14 15 15 16 16 17
26 26 26 26 25 24 23 21 20 20 19 19 18 18 19 19 17 17 17 17 16 16 15 14 14 14 14 14 14 13 13 13 13 14 13 12 12 10 10 9 5 4 6 6 10 13 12 12 13 12 11 11 9 9 9 9 11 12 8 6 8 10 10 11 13 11 9 8 8 9 10 11 12 12 12 13 13 13 14 14 15 15 16 16 17
26 26 26 26 26 25 23 21 21 21 20 19 18 18 19 19 18 16 16 15 14 14 14 13 14 14 14 14 14 13 13 13 13 13 13 12 12 12 12 11 8 5 6 7 8 11 13 12 11 11 11 10 9 9 10 10 11 11 7 3 6 10 11 11 12 10 7 8 8 9 10 10 11 11 11 12 13 13 14 14 15 15 16 17 18
27 26 27 27 26 25 23 22 22 22 21 20 19 18 19 19 18 17 16 15 14 14 15 15 16 15 15 16 15 14 14 14 15 14 13 14 14 15 14 13 12 7 5 6 6 9 11 12 11 10 11 10 9 9 9 10 12 10 5 4 7 9 11 12 10 8 8 10 9 9 9 9 10 10 11 12 13 14 14 14 15 15 16 18 19
27 27 28 27 26 26 24 23 23 23 22 21 20 19 19 19 18 17 16 15 14 14 15 16 17 17 17 17 17 17 16 16 17 15 15 15 15 15 13 12 12 10 7 6 5 8 11 12 10 9 11 11 9 9 7 8 13 11 7 6 7 9 12 12 9 6 9 12 11 9 8 9 9 10 11 12 13 14 14 14 15 16 17 19 20
28 28 29 28 27 27 26 24 23 23 23 23 21 20 20 19 18 17 16 15 15 15 16 17 17 17 17 17 18 17 16 16 15 14 14 14 12 12 11 11 11 11 10 8 4 6 9 11 10 7 10 10 9 9 7 8 11 10 7 7 9 10 13 13 10 6 8 11 11 8 7 8 8 9 11 12 13 14 14 15 15 16 18 19 21
29 29 29 28 28 28 26 25 24 24 24 23 23 22 21 20 19 18 17 17 17 17 16 16 17 17 18 18 18 17 16 16 15 13 13 12 11 12 12 12 11 10 9 9 6 3 5 7 9 6 7 9 8 8 8 8 9 8 6 7 9 10 11 12 12 9 6 8 10 7 6 7 8 9 11 12 13 14 15 15 16 17 18 19 21
29 29 29 29 29 29 27 26 25 24 24 24 24 23 22 21 20 20 19 19 19 18 17 17 17 17 17 17 18 17 15 15 15 13 13 13 12 12 11 11 11 10 9 9 8 5 6 6 7 6 6 8 8 9 8 7 7 7 6 7 8 8 8 8 11 11 6 6 10 7 6 7 8 10 11 12 13 14 15 16 16 17 18 19 21
29 29 30 30 30 30 28 28 28 26 25 25 25 24 23 22 21 21 21 20 20 18 18 18 17 16 16 16 17 17 15 15 14 13 13 13 12 12 12 11 10 10 10 11 11 8 9 8 7 7 8 9 8 8 8 7 7 7 7 7 7 7 6 6 8 10 7 6 9 7 5 7 8 9 10 12 13 13 14 15 16 17 18 19 21
29 30 31 31 31 31 29 29 29 27 26 25 25 25 25 24 23 22 21 21 20 19 18 17 17 16 16 16 16 16 15 14 14 12 11 12 11 11 12 11 10 10 10 11 11 7 9 10 9 10 10 9 9 8 7 7 7 7 7 8 7 6 7 6 7 9 9 8 9 7 7 8 8 9 11 12 13 13 14 15 17 18 19 19 20
29 30 31 31 31 31 30 30 30 28 27 26 26 25 26 26 25 23 21 20 18 18 17 16 16 16 16 16 16 16 15 14 14 12 11 11 11 10 11 10 10 10 9 10 8 4 8 9 10 11 10 8 8 8 7 7 8 7 7 6 6 7 8 8 7 8 10 11 12 11 11 11 12 12 14 16 16 15 15 16 18 20 20 19 20
31 31 31 32 32 32 32 32 31 29 28 27 26 26 27 26 25 24 21 19 17 16 16 16 16 16 16 16 16 16 15 14 14 13 12 12 11 10 10 10 10 9 8 8 7 5 6 8 9 9 8 8 8 7 7 7 7 8 8 6 6 7 7 8 8 9 11 13 13 12 13 15 15 16 17 19 19 19 17 17 19 23 22 19 19
32 32 32 32 32 32 32 32 32 31 29 28 27 27 28 26 25 23 20 17 17 16 16 16 16 16 16 17 16 16 16 15 15 14 13 13 12 10 11 11 10 10 9 8 7 7 8 8 8 8 8 8 7 7 7 7 5 6 6 6 7 8 8 8 9 9 10 11 10 11 14 15 15 16 17 19 21 21 18 17 22 24 20 17 20
32 33 33 33 32 32 32 32 32 32 30 29 28 28 28 27 25 22 19 17 17 17 16 16 16 17 17 17 17 16 16 16 15 15 14 14 12 11 12 11 10 11 10 9 9 9 10 9 9 9 8 8 8 7 7 6 5 6 6 6 6 7 7 7 8 9 9 9 10 11 14 15 16 16 16 18 21 19 14 18 22 19 15 19 26
32 34 33 32 31 31 33 32 32 32 30 29 29 29 28 27 24 21 19 18 17 16 16 16 17 17 17 17 17 17 17 16 16 15 16 15 13 12 12 11 11 11 10 10 10 10 10 9 9 9 9 9 8 7 6 5 5 7 6 5 6 6 7 8 9 10 10 10 10 12 13 15 16 15 16 18 18 15 15 19 19 16 18 25 29
32 33 33 32 30 31 33 33 32 32 31 30 30 31 28 26 23 21 20 19 17 16 16 17 17 17 18 17 17 17 17 17 17 17 17 16 15 14 13 12 12 12 11 10 11 11 10 10 9 9 9 8 8 8 7 7 6 5 2 3 6 7 8 9 9 10 9 9 10 12 14 14 15 15 16 16 16 16 18 18 16 18 23 27 28
33 33 32 31 31 31 33 33 32 31 31 31 33 32 30 26 24 22 21 19 18 18 17 17 18 18 18 17 17 18 19 19 20 20 19 19 18 15 14 14 13 13 12 11 11 11 10 10 10 9 8 8 8 8 8 7 6 3 2 4 6 7 8 9 9 8 6 6 10 14 14 13 14 16 16 15 17 18 17 16 19 23 25 28 29
33 32 32 30 30 31 32 34 33 30 29 31 34 34 32 29 26 24 22 21 20 19 18 18 18 18 19 17 17 20 22 22 22 22 21 21 20 18 16 16 16 15 13 12 12 11 10 10 9 8 8 8 8 7 7 6 5 5 5 5 6 6 7 7 8 7 6 8 12 15 15 13 14 16 16 16 18 18 17 19 23 24 27 29 29
33 32 31 30 29 30 31 33 32 29 28 31 35 36 34 32 29 25 22 21 21 19 18 19 19 19 19 18 17 20 22 22 23 23 22 22 21 19 18 18 18 17 14 13 12 10 10 9 8 8 8 7 7 7 6 6 5 5 5 5 6 7 7 7 8 9 9 11 14 16 15 14 14 16 17 18 19 18 20 22 23 25 29 28 27
33 31 32 31 30 30 31 32 30 26 27 33 36 37 35 34 32 26 22 21 21 19 19 20 19 19 20 19 17 17 20 22 22 21 21 21 21 21 19 19 19 18 16 14 11 10 10 7 6 8 8 6 6 6 6 5 4 4 4 5 6 6 6 8 9 11 12 13 14 15 15 14 14 16 18 19 19 20 21 22 24 27 27 25 29
33 33 33 31 29 30 31 32 29 25 29 36 38 38 37 36 34 29 22 20 20 20 20 20 20 20 20 20 18 17 20 22 21 19 19 20 21 21 20 19 19 18 18 17 13 12 12 8 4 6 7 5 4 4 5 5 4 4 5 5 5 6 7 9 11 15 17 15 13 13 15 13 13 17 20 20 20 22 22 23 26 25 23 27 33
34 33 33 30 29 30 31 31 28 25 30 37 39 39 38 37 36 32 24 20 20 19 19 20 20 20 20 20 18 18 20 22 22 20 19 18 18 18 17 16 15 16 18 18 15 14 13 8 4 3 5 7 6 4 5 5 4 4 5 6 6 7 9 11 13 15 14 12 10 12 13 12 13 17 20 21 21 22 23 24 24 23 25 30 33
31 29 31 32 31 30 31 31 27 25 31 37 38 40 40 38 38 35 26 21 20 19 19 20 20 19 20 20 19 19 20 22 23 23 20 18 17 16 14 13 13 13 14 16 16 15 13 12 9 6 6 9 10 9 9 8 5 3 4 6 7 9 10 11 11 10 9 10 10 10 11 12 14 17 20 22 22 22 23 23 22 23 28 31 29
31 29 32 34 32 29 31 33 28 25 32 38 39 40 41 40 39 36 27 20 20 19 19 20 20 19 20 21 20 19 20 21 24 25 23 19 17 16 15 15 14 12 12 14 17 19 17 16 15 12 9 10 12 12 12 11 9 7 5 6 7 8 9 10 9 8 10 11 7 4 8 13 15 16 19 22 22 22 22 22 23 25 28 29 29
30 32 36 33 30 31 34 34 29 27 33 39 39 40 42 42 42 38 28 21 20 19 18 19 20 19 20 22 21 19 19 22 26 28 26 21 18 18 17 16 16 14 13 13 15 18 18 17 17 16 14 13 14 14 14 13 12 10 8 8 8 8 8 9 9 9 11 9 3 5 10 14 15 17 19 21 22 21 21 21 24 26 27 29 29
29 33 35 30 28 32 34 33 30 28 33 39 40 40 43 43 43 39 29 21 20 20 19 20 20 18 19 22 23 19 18 22 26 28 29 24 18 17 18 17 16 15 14 13 13 15 17 18 17 17 17 16 16 16 15 14 13 11 11 11 10 9 10 11 10 9 10 7 4 8 13 15 15 17 18 17 17 18 20 23 25 25 26 28 29
Wind_Direction
186 188 187 187 192 191 193 194 198 200 193 198 206 202 207 213 215 219 222 229 225 217 224 223 222 227 211 184 154 133 110 113 125 123 114 115 112 114 122 126 136 132 119 112 96 95 100 99 98 96 92 88 86 83 78 74 78 82 80 72 60 59 60 60 58 53 48 44 42 41 40 39 35 30 21 13 15 16 14 11 9 11 12 11 10
187 185 184 185 187 188 192 191 196 198 192 199 204 200 206 211 214 219 221 227 223 213 221 224 219 218 199 166 134 121 139 127 125 127 125 119 110 111 122 128 131 125 119 114 107 108 107 104 101 99 95 91 88 85 82 79 77 78 81 80 67 58 55 54 52 47 41 36 34 32 30 30 28 26 23 12 8 10 9 7 4 3 5 6 4
188 183 182 183 182 186 190 189 193 194 193 197 200 199 205 211 214 218 222 225 222 212 215 226 216 187 176 141 137 155 160 152 137 133 132 124 120 121 120 120 121 121 123 118 114 112 110 108 104 102 100 94 89 84 82 81 77 77 77 79 74 60 51 44 42 38 32 27 24 22 20 19 16 15 15 11 4 1 357 358 358 355 355 357 357
187 183 180 182 182 186 188 189 191 190 192 195 197 200 206 213 216 218 226 228 221 211 209 218 168 143 161 138 159 175 149 144 149 140 136 129 134 136 123 115 121 130 130 123 119 117 115 111 107 106 103 97 93 89 87 86 83 80 73 71 66 57 48 36 29 23 18 15 12 12 11 8 5 2 1 1 359 356 351 347 348 348 348 346 349
185 183 181 182 182 185 187 189 189 187 190 192 193 199 208 213 215 219 224 227 219 205 206 213 185 173 182 158 164 170 152 153 157 144 139 128 136 143 133 125 122 125 133 127 124 123 121 118 114 112 109 103 99 97 97 99 100 91 72 60 53 44 35 25 17 11 5 360 356 357 359 359 356 352 348 346 346 346 346 342 339 341 343 341 341
182 182 183 181 181 184 186 188 187 186 187 189 193 199 209 210 213 219 216 220 216 193 208 218 190 175 185 181 172 166 162 167 166 149 133 115 128 142 139 134 120 120 132 130 127 129 128 127 125 122 119 115 110 109 109 111 113 103 83 57 41 32 22 14 8 6 4 357 352 349 350 353 351 348 343 339 336 335 336 337 333 331 334 335 335
182 182 184 181 182 184 187 188 186 187 188 192 196 200 210 211 212 217 213 220 216 181 202 209 178 164 185 198 182 165 155 154 160 150 129 118 122 119 118 117 108 125 141 139 135 137 137 137 139 137 132 125 122 128 127 125 121 102 89 60 32 25 17 13 5 360 358 355 353 348 345 346 347 346 342 337 336 333 330 331 330 328 327 328 330
182 184 188 186 187 188 189 188 186 190 193 196 200 203 210 213 214 220 221 219 188 168 194 191 171 167 187 195 173 157 151 155 167 149 122 111 112 110 115 117 116 140 149 148 147 152 155 152 151 150 146 140 137 144 146 137 132 116 86 54 18 9 6 3 1 358 353 349 349 347 342 340 342 343 339 335 334 332 330 328 327 327 326 323 323
187 192 197 195 194 193 190 187 189 194 197 199 203 208 210 212 216 221 227 225 162 172 185 169 164 164 178 178 156 153 156 160 159 130 116 106 116 126 132 131 136 152 160 163 159 163 173 174 170 170 174 168 151 140 149 144 134 132 99 49 17 1 355 351 350 351 349 343 344 344 340 336 337 338 336 332 330 329 328 328 326 325 325 323 320
193 199 203 201 198 195 190 187 190 196 199 203 206 211 211 213 218 217 224 223 162 170 172 158 165 167 172 165 147 152 157 156 151 144 143 135 144 143 135 141 156 168 175 175 167 166 177 191 195 195 200 189 169 157 165 165 153 129 105 16 7 354 348 347 345 346 344 338 339 341 338 333 332 333 332 330 328 327 326 327 326 325 325 323 320
195 201 206 205 201 195 189 187 192 197 200 205 208 212 210 209 215 216 218 202 160 167 164 158 165 164 164 156 149 157 158 160 164 172 167 153 158 154 149 155 162 172 180 181 178 174 177 190 199 197 205 205 192 194 199 189 170 144 128 330 343 344 344 342 340 341 340 336 334 337 335 331 329 328 329 329 327 327 327 327 327 327 326 324 321
195 202 207 207 204 197 189 189 195 198 201 206 208 209 207 205 208 213 213 190 166 172 165 155 149 141 143 149 157 167 173 178 180 193 191 173 176 173 168 168 169 177 185 187 185 184 184 190 196 192 189 205 214 207 204 202 191 173 181 279 310 335 341 338 337 335 334 334 332 331 332 330 327 326 328 329 329 329 329 329 329 329 328 326 324
196 201 207 207 206 203 196 193 198 200 202 207 211 210 206 206 208 210 211 193 172 167 162 153 144 142 147 157 164 175 188 191 181 203 212 190 188 187 180 177 179 183 186 190 189 189 192 195 201 195 186 194 202 188 184 221 210 196 300 305 305 331 339 336 335 331 329 331 329 329 329 328 327 327 329 330 331 331 331 331 330 330 329 328 326
197 201 208 208 205 204 202 199 200 202 205 208 213 212 208 209 209 210 210 197 179 166 164 163 162 166 165 165 173 184 201 214 208 215 218 206 196 190 188 188 191 188 186 191 193 195 196 196 199 196 193 197 192 188 212 217 201 207 323 320 320 329 330 331 330 327 327 328 327 328 328 327 327 328 330 331 332 333 332 331 331 330 330 329 328
197 201 206 209 206 204 205 203 201 203 205 207 211 210 208 209 209 210 208 198 191 176 175 181 182 173 168 171 180 184 206 217 219 220 214 210 204 197 197 201 201 191 188 197 197 199 197 192 194 194 198 205 196 202 211 197 201 255 313 315 308 308 314 318 322 323 326 328 327 327 328 328 329 330 331 332 333 333 332 332 332 332 332 331 330
197 200 203 207 207 206 205 204 203 203 205 206 208 207 207 207 208 213 210 202 197 186 187 198 199 180 178 188 176 193 235 206 202 211 207 208 208 203 201 204 207 194 190 204 203 202 201 191 190 193 198 208 210 222 218 196 218 274 298 297 289 300 315 318 321 325 328 328 327 327 328 329 330 331 331 332 333 332 331 332 333 333 332 331 331
197 199 203 206 207 208 207 205 202 203 207 208 207 205 206 206 206 212 212 209 202 192 194 204 209 202 205 209 165 216 275 168 177 197 200 207 210 204 203 204 209 199 195 213 209 200 203 197 192 192 197 208 212 219 222 213 233 264 264 264 282 304 315 321 324 327 330 329 327 328 328 329 330 330 331 333 332 331 331 332 332 332 332 331 330
197 199 203 205 207 208 207 207 204 203 206 208 206 204 205 206 206 210 212 213 209 200 199 202 211 217 221 236 234 244 256 148 170 185 189 209 213 203 204 205 209 206 203 215 213 203 205 202 195 196 204 210 214 220 221 218 207 187 195 244 288 306 312 322 328 329 332 332 330 328 327 329 329 329 331 332 330 329 331 332 332 331 331 330 330
198 200 204 205 207 208 207 208 207 204 203 205 206 205 207 206 206 209 210 212 211 209 207 201 207 217 221 234 239 235 236 201 226 216 178 206 213 206 207 206 208 214 213 216 216 207 204 205 201 203 210 211 213 220 222 214 204 207 225 250 282 303 313 324 330 331 335 337 334 327 326 327 328 329 331 330 329 329 330 331 331 331 330 330 329
198 201 203 204 206 207 207 208 209 206 201 203 206 206 207 205 204 207 208 209 210 214 216 204 205 212 213 222 228 232 238 241 258 269 243 225 210 203 206 206 207 214 219 224 222 210 201 206 212 212 211 210 213 217 221 213 202 223 245 257 285 306 318 326 330 334 338 339 336 329 326 327 327 329 330 329 328 328 330 330 330 330 330 329 329
201 204 205 205 206 208 207 209 209 206 203 203 207 207 206 204 203 206 207 209 210 215 220 211 209 213 208 213 222 228 233 237 245 251 256 257 232 194 190 198 209 214 217 223 226 217 203 206 220 222 211 207 212 215 219 215 195 219 248 267 295 309 320 325 329 336 339 337 336 334 333 331 330 329 328 328 327 328 330 329 330 330 329 329 329
204 206 206 206 207 207 208 210 209 207 205 205 205 206 207 204 203 205 206 208 209 214 219 217 216 217 213 212 216 220 225 230 232 233 239 248 251 223 195 194 207 210 206 210 218 214 204 206 218 224 214 206 213 217 218 212 193 210 243 272 295 308 321 327 331 339 337 334 336 336 338 339 333 328 326 325 326 328 329 329 329 327 327 329 329
205 207 208 208 208 208 208 210 210 207 206 206 206 206 207 205 203 205 207 207 209 213 218 220 221 219 217 216 215 215 217 221 225 224 225 234 241 246 221 205 212 211 196 199 209 207 208 211 212 219 217 209 214 216 208 201 202 216 246 276 294 309 323 330 337 342 336 333 336 338 341 342 334 327 325 325 327 329 329 328 327 326 328 330 329
203 206 207 207 209 209 208 210 211 208 206 206 206 206 208 206 203 206 208 208 210 213 217 221 222 220 220 220 218 218 219 221 229 229 228 237 238 248 245 221 222 209 184 182 195 208 215 216 211 217 218 212 215 212 198 201 219 233 257 282 299 313 322 332 340 340 334 333 335 338 341 339 334 329 326 327 328 330 329 329 328 328 331 331 330
200 204 205 205 208 209 208 209 209 208 206 206 207 206 207 205 202 207 210 209 213 217 222 225 224 222 222 222 220 222 223 221 231 239 236 239 241 244 248 244 249 215 172 160 181 216 219 217 216 217 213 213 215 208 195 207 232 243 264 290 302 308 311 325 336 336 331 331 333 336 338 334 330 328 326 327 328 329 329 329 329 330 330 330 330
200 202 202 203 207 207 207 208 208 208 206 206 207 207 208 205 203 209 213 214 217 221 225 228 227 225 223 223 222 222 226 225 229 238 238 236 238 240 245 252 269 261 188 161 200 220 217 211 214 214 211 212 211 204 195 210 235 244 265 289 292 296 301 312 325 331 326 326 330 332 332 327 325 324 324 326 327 327 328 327 328 328 327 328 327
200 202 202 203 205 206 206 206 206 208 206 205 206 207 208 208 206 208 210 212 216 220 225 226 226 225 221 223 228 224 225 228 229 233 237 238 239 240 249 256 251 238 243 229 217 219 212 205 208 210 209 206 204 203 195 205 235 250 272 291 274 278 287 296 314 326 321 321 327 327 325 322 322 322 323 325 326 327 327 326 325 325 325 325 324
199 202 203 203 204 204 205 205 204 205 205 204 206 205 205 206 207 207 208 211 215 219 223 224 225 226 222 222 229 229 224 226 230 233 234 238 239 237 243 252 247 230 234 238 230 220 208 201 202 204 205 202 199 203 202 211 236 255 283 290 248 265 276 286 309 327 326 323 325 324 322 320 320 321 323 325 326 326 325 323 323 324 324 323 322
198 200 202 203 203 203 203 204 203 203 204 205 205 203 201 204 207 208 209 212 215 218 219 220 218 219 222 222 223 227 226 223 224 228 230 229 233 237 240 245 249 248 241 237 229 220 209 197 195 200 200 199 197 200 209 223 233 245 267 249 240 256 266 280 305 330 341 335 328 325 322 319 320 322 322 323 325 325 324 322 323 323 323 321 320
198 199 200 201 202 202 202 203 203 202 204 205 204 201 200 202 205 207 210 210 213 218 219 220 215 209 212 219 219 223 227 224 218 217 223 228 233 241 245 243 242 241 249 258 231 213 202 189 198 203 191 194 199 198 208 223 227 241 258 246 238 239 255 278 295 315 336 339 335 328 323 321 321 320 321 323 324 324 323 321 322 322 322 321 320
198 198 199 198 200 201 201 203 203 202 203 204 202 201 200 200 202 205 208 208 212 218 218 220 220 215 214 218 220 222 228 233 228 220 224 231 230 233 235 233 236 237 243 263 257 203 184 183 202 204 180 187 195 195 207 219 226 248 264 244 235 237 260 279 276 276 316 332 335 331 326 327 324 323 324 324 326 326 324 322 320 320 320 320 320
200 199 198 197 198 200 199 201 201 201 201 201 201 201 200 199 201 204 206 207 211 216 216 217 220 221 222 221 224 227 226 226 227 219 215 217 215 218 223 224 230 234 232 247 253 189 152 177 194 184 170 181 193 207 216 215 226 255 261 235 234 247 268 276 266 262 285 321 330 328 329 332 327 326 328 327 328 327 323 320 317 316 318 318 319
201 199 197 197 198 198 198 199 200 200 198 198 200 200 198 200 202 205 207 207 210 215 216 217 215 214 216 215 216 218 212 206 207 206 204 206 206 211 218 219 221 224 219 230 238 191 138 155 174 170 180 192 209 225 221 211 223 248 251 231 233 251 269 268 260 253 254 311 322 316 326 332 328 327 327 325 325 323 321 320 316 314 315 317 319
203 199 197 196 196 196 197 198 198 198 197 198 199 198 198 202 202 205 208 207 210 215 215 214 211 207 208 210 208 203 199 198 200 201 200 201 201 203 211 215 214 218 211 216 233 210 157 155 171 181 196 209 220 222 215 218 227 236 248 243 236 249 262 263 253 237 235 296 311 307 320 325 322 323 322 320 318 318 321 322 319 317 315 315 318
203 201 198 195 195 195 197 198 196 195 196 198 198 197 201 203 202 206 209 206 208 214 214 210 209 206 205 206 204 196 193 195 197 199 196 196 198 200 206 209 209 214 209 210 231 217 154 156 187 198 196 206 224 222 211 218 225 236 253 249 238 245 252 258 253 233 236 275 297 307 320 320 319 319 320 321 316 313 316 321 325 324 318 315 317
202 201 200 197 197 198 197 198 197 194 194 197 196 197 203 206 205 206 203 198 201 208 212 210 208 207 203 202 201 193 190 192 192 193 191 188 194 197 197 200 202 207 204 201 214 179 141 163 201 206 192 192 219 230 219 216 220 230 246 247 246 251 248 250 254 245 250 271 290 304 313 318 320 318 318 320 318 314 311 314 322 323 319 315 315
201 200 201 199 198 199 198 198 198 195 194 194 193 199 206 206 205 205 199 193 198 207 211 211 209 206 202 201 199 191 189 191 188 188 187 184 189 191 189 194 194 189 185 183 179 162 169 191 202 198 188 190 210 224 224 230 233 231 234 236 242 255 255 255 261 258 260 275 291 301 306 312 316 316 314 315 316 314 307 305 314 318 315 312 315
202 201 202 200 199 200 199 200 200 198 195 194 194 201 207 205 202 202 196 192 201 210 211 209 207 205 202 201 199 193 191 190 186 185 183 182 186 186 187 192 186 175 173 175 178 187 203 207 194 185 190 197 206 220 226 234 246 249 249 246 245 250 249 254 266 266 265 274 285 296 303 306 308 307 306 309 312 309 304 308 315 315 313 314 322
201 202 202 200 200 200 200 201 202 200 197 196 198 201 205 204 199 195 189 191 203 211 210 206 205 203 202 201 199 195 193 190 185 182 179 179 182 182 184 187 176 169 176 186 191 197 202 203 193 190 199 202 209 224 222 212 235 257 257 260 266 260 249 258 273 274 271 270 277 295 306 309 309 307 304 307 309 307 307 315 318 318 321 326 327
201 203 203 201 199 200 202 202 202 200 196 195 198 202 203 200 192 185 184 188 198 205 204 204 203 201 200 201 198 195 194 191 185 181 177 175 176 178 179 178 173 174 184 191 193 196 199 200 198 198 203 200 205 220 212 197 231 248 234 242 277 284 278 279 281 278 275 271 278 295 307 311 312 312 310 309 309 310 312 313 316 322 326 325 323
202 205 204 200 197 201 203 202 201 201 197 194 198 200 196 189 182 181 182 185 195 202 201 201 201 200 199 199 197 195 193 191 186 181 178 175 175 177 177 177 177 182 188 191 193 198 199 199 203 204 202 199 203 211 209 212 235 247 215 234 272 281 283 286 287 287 285 280 285 296 304 309 312 312 312 309 310 314 311 307 311 316 318 320 319
204 206 204 199 197 201 202 200 199 198 196 196 197 193 187 181 178 179 179 184 200 206 201 198 199 198 198 197 196 196 193 190 187 182 179 177 176 177 178 179 180 184 191 194 196 200 201 202 208 206 201 207 210 208 213 223 234 245 257 261 270 279 285 289 292 295 298 300 301 302 305 310 313 314 315 314 315 314 310 308 310 311 314 318 317
204 206 203 199 196 199 202 200 197 193 191 193 192 187 186 185 181 177 177 185 202 207 201 198 198 196 196 194 193 195 194 191 189 186 184 182 180 178 179 182 182 184 192 197 199 203 204 205 209 206 206 216 214 207 216 224 223 231 251 260 269 280 287 294 300 302 311 321 314 306 304 309 314 315 318 319 318 316 313 312 311 310 313 315 315
202 204 203 199 196 198 202 199 193 188 187 189 189 188 190 191 186 178 175 182 196 202 200 199 198 195 194 192 188 189 191 190 189 190 190 189 187 183 182 184 186 188 193 195 197 200 203 209 210 204 213 223 211 205 219 223 221 229 240 252 264 273 279 291 299 302 311 319 312 302 300 308 314 317 319 320 319 318 316 314 313 312 313 315 319
200 203 202 200 197 198 201 199 190 184 186 189 190 192 195 195 190 181 175 181 191 198 200 200 199 196 194 191 184 182 187 188 187 187 191 193 193 190 188 188 190 194 197 196 195 190 187 201 218 211 214 224 214 209 213 211 216 237 248 259 267 273 284 294 299 301 303 302 297 297 302 310 317 320 320 321 322 320 317 315 314 313 313 319 324
200 204 201 198 197 197 201 200 190 182 188 193 194 197 197 195 191 184 177 181 190 197 201 200 200 198 194 190 184 180 183 185 183 182 185 190 192 193 193 193 195 199 200 199 201 196 186 187 222 226 214 212 217 211 196 194 211 236 255 272 284 290 294 294 289 286 285 282 283 295 305 311 320 321 319 321 323 320 318 317 315 315 319 324 323
200 203 198 195 198 199 201 200 189 181 192 197 198 199 197 194 193 188 182 185 195 200 201 199 200 198 194 190 186 182 181 183 184 182 180 181 184 187 191 193 195 202 204 203 206 205 200 198 212 231 206 195 201 195 177 187 211 233 254 273 284 285 283 282 281 281 282 285 288 296 302 309 321 321 319 322 323 320 319 319 317 321 325 324 322
199 199 194 195 200 199 199 199 189 182 194 199 199 199 197 194 194 191 187 191 199 200 198 197 198 197 194 191 188 185 183 184 187 185 179 176 175 176 181 185 188 196 203 206 207 204 203 206 207 210 199 193 198 200 189 185 191 210 258 274 272 270 272 277 284 290 300 307 304 300 299 309 322 323 319 320 322 320 320 320 321 325 325 324 326
195 191 191 197 201 197 198 201 192 184 194 199 199 199 196 194 193 190 187 189 193 194 194 195 197 197 195 192 189 187 185 185 188 186 180 175 173 172 177 182 187 193 197 204 211 210 207 209 210 212 211 205 209 214 212 213 218 230 256 270 271 275 281 286 292 303 309 307 310 323 315 315 323 326 321 319 320 320 320 322 325 326 326 328 331
190 190 193 199 201 197 201 205 196 188 194 197 198 198 196 194 192 188 185 186 188 189 191 192 195 196 196 194 193 190 188 189 191 188 181 176 173 174 178 181 187 193 192 195 207 214 215 215 215 217 219 220 220 223 229 235 238 239 243 253 270 283 286 288 293 302 305 304 332 1 328 321 325 328 325 322 321 321 323 324 325 326 329 332 333
186 191 195 198 199 199 203 207 200 192 194 196 197 198 196 194 192 186 182 183 185 185 187 189 192 195 195 194 193 193 194 194 193 189 184 179 175 177 181 183 187 193 191 186 191 205 214 217 219 222 225 228 231 233 239 244 242 238 237 244 261 272 274 280 289 296 299 306 7 2 333 325 327 328 327 327 322 319 323 325 325 327 333 335 332